1998-067UU

Last updated on Mon Jan 09 2023 00:03:43 GMT+0000 (Coordinated Universal Time)

1 55127U 98067UU 23008.37875716 .00625507 00000+0 72022-2 0 9996 2 55127 51.6403 39.7991 0002397 69.7966 290.3284 15.59329434 1580

Satellite not in orbit